Location: Cambiago
(45.5667°N, 9.4167°E)
Time: 09:06:08
(UTC+00:00)

Daily predictions for brighter satellites

Satellite Brightness Start Highest point End
(mag) Time Altitude Azimuth Time Altitude Azimuth Time Altitude Azimuth
NOSS 0 Rocket 4.4 16:43:55 10° NNW 16:50:07 68° WSW 16:56:14 10° SSE
Cosmos 2237 Rocket 2.2 16:45:19 10° NNW 16:50:59 88° ENE 16:56:37 10° SSE
ATLAS CENTAUR R/B 4.2 16:46:08 10° W 16:51:29 53° NNW 17:06:08 10° ENE
ATLAS 5 CENTAUR R/B 3.9 16:49:57 10° WNW 16:52:48 16° NNW 16:55:52 10° NNE
Cosmos 1953 Rocket 4.4 16:50:03 10° SSE 16:53:56 30° E 16:57:50 10° NNE
Cosmos 1939 Rocket 4.4 16:51:46 10° E 16:54:09 16° ENE 16:56:34 10° NNE
Cosmos 2154 Rocket 4.1 16:48:17 10° S 16:54:34 88° W 17:00:51 10° N
COSMO-SKYMED 1 3.4 16:52:25 10° NNE 16:56:19 31° E 17:00:10 10° SSE
Cosmos 1758 Rocket 3.7 16:54:01 10° S 16:58:12 53° E 17:02:25 10° NNE
Cosmos 1455 2.8 16:57:09 10° N 17:00:38 33° ENE 17:04:04 10° SE
CORIOLIS 4.4 17:00:23 10° S 17:05:45 78° WSW 17:11:08 10° NNW
H-2A ROCKET BODY 4.5 16:59:33 10° WSW 17:09:56 21° SSW 17:14:08 10° SSE
ERBS 3.3 17:07:29 10° WSW 17:10:39 39° NNW 17:13:46 10° NE
SL-16 R/B 2.3 17:09:57 10° NNW 17:15:33 55° ENE 17:21:06 10° SE
Cosmos 2366 rocket 4.3 17:09:48 10° SSE 17:15:40 47° E 17:21:39 10° NNE
Atlas Centaur 2 4.2 17:15:33 10° S 17:16:27 10° SSE 17:17:23 10° SSE
Cosmos 2251 Rocket 3.8 17:11:30 10° N 17:16:35 44° ENE 17:21:40 10° SE
H-2A R/B 3.8 17:18:08 12° NE 17:18:08 12° NE 17:19:38 10° NE
Cosmos 1825 Rocket 3.5 17:17:06 10° S 17:21:26 84° E 17:25:48 10° N
Cosmos 44 3.1 17:16:53 10° SSW 17:21:28 71° ESE 17:25:35 12° NE
BREEZE-M DEB (TANK) 2.1 17:20:45 10° SW 17:23:04 61° SSE 17:24:29 21° ENE
Cosmos 2219 3.7 17:17:37 10° SW 17:23:09 60° WNW 17:28:45 10° NNE
Cosmos 2082 3.8 17:17:55 10° S 17:23:24 58° ESE 17:28:56 10° NNE
USA 32 4.1 17:20:34 10° S 17:25:47 82° W 17:31:04 10° N
Shenzhou-11 Module 2.5 17:23:54 10° WSW 17:26:28 40° S 17:27:56 20° ESE
USA 116 4.0 17:28:30 20° NE 17:29:53 28° E 17:32:38 10° SSE
Cosmos 2297 Rocket 2.4 17:24:38 10° SSW 17:30:17 73° WNW 17:35:59 10° NNE
Meteor 2-10 Rocket 3.4 17:25:33 10° N 17:30:51 76° ENE 17:35:56 10° SSE
Okean-O 3.0 17:26:34 10° S 17:30:59 69° WSW 17:35:25 10° NNW
CZ-4 R/B 1.4 17:27:24 10° SSE 17:31:25 64° ENE 17:35:33 10° N
ATLAS CENTAUR R/B 1.6 17:29:36 10° NNW 17:33:30 42° NE 17:36:00 18° ESE
Envisat 3.7 17:29:43 10° S 17:34:42 57° W 17:39:44 10° NNW
Cosmos 2221 3.4 17:35:13 10° NNE 17:38:50 26° ENE 17:41:13 16° ESE
Cosmos 2263 Rocket 3.7 17:37:03 10° SE 17:39:39 16° ESE 17:39:39 16° ESE
Cosmos 2227 Rocket 2.6 17:37:45 10° SW 17:43:21 64° WNW 17:49:00 10° NNE
Cosmos 1328 3.7 17:39:47 10° S 17:43:47 80° E 17:47:50 10° N
Cosmos 1727 Rocket 4.0 17:38:08 10° N 17:44:15 60° ENE 17:50:20 10° SSE
NOAA 15 4.5 17:39:09 10° SSE 17:44:23 76° ENE 17:49:41 10° N
SKYMED 2 3.6 17:40:07 10° NNE 17:44:29 82° WNW 17:48:49 10° SSW
NOAA 11 4.1 17:39:32 10° SSE 17:44:58 66° ENE 17:50:25 10° N
Cosmos-2242 3.7 17:41:20 10° NNW 17:45:34 58° W 17:49:46 10° S
DELTA 2 R/B (1) 4.4 17:40:23 10° WSW 17:45:39 44° S 17:49:53 16° ESE
SL-8 Rocket 4.1 17:43:24 10° SSW 17:49:43 79° W 17:56:02 10° N
USA 267 3.9 17:45:42 15° NE 17:50:58 49° NNW 17:57:10 10° W
Cosmos 407 Rocket 4.3 17:51:21 10° N 17:55:54 28° ENE 17:56:11 28° ENE
YAOGAN 6 4.4 17:53:59 10° SSW 17:57:22 34° W 18:00:44 10° NNW
Cosmos 1356 Rocket 3.2 17:53:26 10° N 17:57:29 71° ENE 18:01:35 10° SSE
Cosmos 44 Rocket 3.9 17:55:01 10° S 17:59:17 32° ESE 17:59:46 32° ESE
Cosmos 1943 3.9 17:54:55 10° N 17:59:55 31° NE 18:00:45 30° ENE
YAOGAN 1 2.6 17:55:53 10° S 18:00:12 80° WSW 18:04:34 10° NNW
CZ-2C R/B 4.5 18:07:19 22° NE 18:07:19 22° NE 18:10:22 10° N
IRS-1A Rocket 4.5 18:00:35 10° SE 18:06:02 47° ENE 18:11:25 10° N
CSL-04 Debris 4.4 18:07:13 10° S 18:12:35 72° WSW 18:18:01 10° NNW
Cosmos 1703 4.3 18:10:54 10° SSW 18:14:43 46° WNW 18:18:34 10° N
ISS -2.8 18:14:14 10° W 18:17:27 38° NNW 18:17:29 38° NNW
Ariane Rocket 2.9 18:13:03 10° SSE 18:18:01 60° ENE 18:23:02 10° N
Cosmos 1821 Rocket 4.0 18:17:04 10° S 18:23:19 62° E 18:29:32 10° NNE
Cosmos 1939 Rocket 3.7 18:24:53 10° S 18:28:41 49° W 18:32:34 10° NNW
SL-8 R/B 3.7 18:24:06 10° W 18:28:55 67° N 18:29:34 59° NE
Cosmos 1842 Rocket 4.1 18:31:43 10° NNW 18:36:09 61° W 18:40:33 10° S
ATLAS 5 CENTAUR R/B 4.3 18:38:27 10° N 18:39:44 11° N 18:40:05 11° N
Cosmos 614 Rocket 3.9 18:39:10 10° NNW 18:43:53 66° NNE 18:43:53 66° NNE
USA 238 DEB 3.9 18:40:32 10° S 18:46:24 48° SE 18:46:24 48° SE
USA 238 3.9 18:40:41 10° S 18:46:26 48° SE 18:46:26 48° SE
ADEOS Rocket 3.3 18:42:30 10° NNE 18:49:15 84° WNW 18:56:41 10° SSW
Cosmos 2123 Rocket 3.9 18:43:03 10° N 18:49:00 62° ENE 18:49:00 62° ENE
H-2A R/B 3.1 18:58:45 32° N 18:58:45 32° N 19:01:30 10° N
Cosmos 1934 Rocket 4.5 18:52:29 10° S 18:56:24 42° SSE 18:56:24 42° SSE
SL-16 R/B 4.4 18:54:48 10° NW 18:59:16 24° WSW 19:03:42 10° SSW
Cosmos 2227 4.1 18:56:56 10° SSW 19:02:34 85° WSW 19:02:34 85° WSW
Atlas Centaur 2 4.1 19:01:20 10° SW 19:03:39 15° S 19:03:39 15° S
ATLAS CENTAUR R/B 3.6 19:09:13 10° WNW 19:12:05 20° WSW 19:12:17 19° WSW
Cosmos 1603 3.9 19:06:55 10° NNW 19:12:33 65° WSW 19:12:45 64° WSW
Cosmos 2221 4.3 19:12:39 10° NNW 19:16:23 29° W 19:18:42 18° SW
NOSS 3-3 (A) 4.4 19:11:37 10° NW 19:19:06 76° NE 19:19:08 76° NE
NOSS 3-3 (C) 4.4 19:11:43 10° NW 19:19:12 76° NE 19:19:12 76° NE
ARGOS 4.5 19:24:29 31° NNW 19:24:29 31° NNW 19:27:15 10° NNW
Cosmos 2263 Rocket 3.2 19:18:01 10° SSW 19:21:27 39° SW 19:21:27 39° SW
USA 267 4.3 19:33:03 33° N 19:33:08 33° N 19:38:47 10° WNW
BREEZE-M DEB (TANK) 4.2 19:11:26 10° WNW 19:36:33 87° SSW 19:36:59 82° SE
Cosmos 1943 4.4 19:38:45 10° NW 19:42:37 38° WNW 19:42:37 38° WNW
ATLAS 5 CENTAUR R/B 4.4 19:53:52 10° NW 20:00:00 74° SW 20:28:44 10° SSE
